Lid_Strength_Index
1 5 5 7 11 13 15 14 13 12 12 9 9 11 10 9 9 12 7 4 0 0 -0 -0 -1 -1 -1 -2 -1 -1 -1 -2 -2 -2 -2 -2 -2 -2 -2 -2 -2 -2 -2 -2 -2 -2 -2 -2 -2
3 4 6 11 13 16 15 14 13 12 9 8 9 9 8 10 6 5 5 1 0 -0 -0 -0 -0 -1 -1 -1 -1 -1 -2 -2 -2 -2 -2 -2 -2 -2 -2 -2 -2 -2 -2 -2 -2 -2 -2 -2 -2
4 6 8 12 15 15 15 13 12 11 9 11 9 7 7 8 6 5 3 0 0 0 -0 -0 -0 -1 -1 -1 -1 -2 -1 -2 -2 -2 -2 -2 -2 -2 -2 -2 -2 -2 -2 -2 -2 -2 -2 -2 -2
6 7 10 13 14 13 12 12 11 10 11 10 8 9 6 4 4 4 1 0 0 0 -0 0 -1 -1 -1 -1 -1 -2 -2 -1 -2 -1 -2 -2 -2 -2 -2 -2 -2 -2 -2 -2 -2 -2 -2 -2 -2
9 10 13 15 14 13 13 12 11 11 12 11 10 10 9 6 5 3 1 0 1 0 0 -0 -1 -1 -1 -1 -2 -1 -1 -1 -2 -2 -2 -2 -2 -2 -2 -2 -2 -2 -2 -2 -2 -2 -2 -2 -1
10 11 14 16 15 13 12 11 11 12 12 11 10 8 7 8 5 4 2 2 2 1 -0 -0 1 -0 -1 -1 -1 -1 -1 -2 -2 -2 -2 -2 -2 -2 -2 -2 -1 -1 -1 -2 -2 -2 -2 -1 0
11 13 15 15 15 13 12 11 12 12 11 11 8 9 9 8 6 5 4 4 3 1 0 -0 -0 0 1 -0 -0 -1 -1 -1 -1 -2 -2 -2 -2 -2 -2 -2 -1 -0 -1 -0 -1 -1 -1 -0 0
12 13 15 15 14 14 11 11 11 11 11 10 10 11 10 7 5 6 8 7 7 6 4 2 0 1 -0 0 1 0 -0 -1 -1 -1 -1 -1 -1 -1 -1 -1 -2 -1 -1 -1 -0 -0 0 1 1
12 15 16 15 14 13 12 12 12 11 11 11 10 11 9 6 6 7 9 10 9 9 8 6 1 2 1 1 1 2 1 1 0 0 1 1 -1 -1 -0 -0 -1 -1 -1 -1 -0 1 1 2 2
13 15 14 13 13 12 12 12 11 11 12 12 12 10 9 5 8 7 8 8 9 10 10 9 7 3 1 0 -0 -0 -0 0 -1 -1 -0 -1 -1 -0 -0 1 0 -1 -0 -0 0 1 3 5 7
14 15 13 13 12 11 12 12 11 12 13 11 11 10 9 7 8 7 7 8 9 11 10 9 8 8 5 3 1 0 1 1 1 1 0 -0 0 0 -0 1 1 2 3 4 4 4 5 6 7
12 12 12 11 11 11 12 12 12 12 11 11 10 10 10 8 8 8 8 9 11 11 10 9 9 8 8 7 3 1 2 1 1 1 0 1 1 1 1 2 2 2 2 3 4 5 6 6 6
12 13 11 11 11 12 11 11 12 12 11 11 11 10 10 9 8 9 9 10 11 10 10 9 9 8 8 8 5 1 2 1 1 1 1 1 1 1 2 2 3 2 3 4 4 5 6 6 7
12 12 11 11 11 11 12 13 12 11 11 11 11 11 11 10 9 10 10 9 9 8 8 8 8 7 7 7 4 1 2 2 2 1 1 2 1 2 2 3 4 3 4 4 5 6 6 7 8
12 12 12 12 12 11 12 12 12 12 12 11 11 12 11 11 10 10 9 10 9 8 8 7 6 5 5 5 3 3 3 3 4 4 2 2 2 2 3 4 4 5 5 5 6 7 6 8 8
13 14 15 13 12 12 12 14 11 12 12 12 12 13 12 11 11 11 10 10 9 9 8 7 5 5 4 2 2 3 4 5 5 5 4 2 2 3 4 4 5 5 6 7 8 7 8 9 10
14 17 16 14 12 13 13 14 12 13 13 13 13 13 12 12 12 11 11 11 10 9 8 8 6 6 5 4 5 6 6 6 7 6 6 5 4 4 4 5 6 7 8 8 9 9 9 10 11
17 17 16 16 14 14 14 14 12 12 13 13 13 13 13 12 11 11 12 11 10 10 9 8 6 5 5 7 7 7 8 9 8 8 7 7 6 6 6 7 7 9 10 10 9 10 12 11 12
15 16 17 15 13 14 14 14 12 12 14 14 13 13 12 12 10 12 12 11 11 11 10 9 6 6 7 7 7 7 8 9 10 10 9 9 8 8 7 8 10 11 11 10 10 11 11 13 13
15 16 16 14 13 14 14 14 12 12 13 12 11 12 11 12 13 13 13 12 11 10 9 8 7 7 7 7 8 9 10 12 11 11 11 10 10 10 10 10 11 12 12 12 11 12 15 16 15
15 16 16 15 14 15 16 17 15 13 13 13 12 11 10 11 12 14 14 13 12 11 9 8 7 8 8 9 11 12 12 12 12 13 13 13 12 12 11 11 13 14 13 12 15 14 14 16 17
16 13 14 15 16 18 16 19 16 14 13 14 11 12 12 12 13 14 14 13 12 11 9 8 7 8 9 11 10 10 10 11 12 13 14 14 13 13 13 14 15 15 16 15 16 16 16 16 18
14 13 14 15 17 18 19 19 17 16 15 13 11 11 12 13 13 14 14 12 12 11 9 9 7 8 10 10 10 9 10 14 14 15 15 15 15 15 16 16 16 17 17 17 17 17 17 17 18
12 14 15 16 17 20 18 17 18 17 15 14 13 12 13 14 14 14 14 13 13 11 10 9 8 10 11 10 10 10 14 14 15 15 16 16 16 16 17 17 17 17 17 17 17 17 17 17 17
14 15 18 20 21 20 19 19 16 14 14 13 12 12 14 14 15 15 15 14 13 11 10 9 8 11 11 11 11 12 13 14 14 15 15 17 17 17 18 18 18 18 18 17 17 17 17 18 18
15 15 19 23 23 20 19 20 16 14 13 14 13 14 15 14 14 16 15 14 13 12 10 8 10 11 11 11 12 13 13 13 13 14 15 15 16 16 18 18 18 18 17 17 17 17 17 18 18
16 17 14 18 25 23 19 17 15 14 14 13 14 14 14 14 14 16 15 14 13 12 10 9 10 11 12 12 13 13 13 14 14 15 16 16 16 17 18 18 18 17 17 17 18 18 18 18 18
15 14 17 19 24 25 20 20 17 15 14 14 14 13 14 14 16 16 15 14 13 12 11 11 11 12 12 12 13 14 14 14 15 16 16 17 17 17 18 18 18 18 18 18 18 18 18 19 19
16 16 17 16 19 22 24 18 15 14 14 14 13 14 14 14 15 16 15 14 14 13 14 13 12 13 14 14 15 14 15 15 16 16 17 17 17 18 18 18 18 18 18 18 19 19 19 19 19
16 16 16 18 20 19 20 17 14 13 14 14 14 14 14 14 15 16 15 15 15 15 15 14 13 13 14 14 15 15 15 16 16 17 17 17 18 18 18 18 18 19 19 19 19 19 19 19 19